Springfield, OH

9:21 PM EDT on July 23, 2017 (GMT -0400)
Springfield-Beckley Municipal

Weather History for KSGH - April, 2013

Change the Weather History Date:

Saturday, April 20, 2013

  Actual Average (KFFO) Record (KFFO)
Temperature  
Mean Temperature 38 °F -  
Max Temperature 43 °F 62 °F 82 °F (2005)
Min Temperature 32 °F 41 °F 32 °F (1997)
Degree Days  
Heating Degree Days 28    
Moisture  
Dew Point 26 °F    
Average Humidity 68    
Maximum Humidity 93    
Minimum Humidity 46    
Precipitation  
Precipitation 0.01 in - - ()
Sea Level Pressure  
Sea Level Pressure 30.18 in    
Wind  
Wind Speed 16 mph (WNW)    
Max Wind Speed 24 mph    
Max Gust Speed 28 mph    
Visibility 7 miles    
Events Snow    
Averages and records for this station are not official NWS values.
T = Trace of Precipitation, MM = Missing Value Source: NWS Daily Summary

Daily Weather History Graph

Daily Weather History Graph

Search for Another Location

Airport or City:

Trip Planner

Search our weather history database for the weather conditions in past years. The results will help you decide how hot, cold, wet, or windy it might be!

Date:

Astronomy

Apr. 20, 2013 Rise Set
Actual Time 6:50 AM EDT 8:18 PM EDT
Civil Twilight 6:21 AM EDT 8:47 PM EDT
Nautical Twilight 5:47 AM EDT 9:21 PM EDT
Astronomical Twilight 5:11 AM EDT 9:57 PM EDT
Moon 3:02 PM EDT (4/20) 3:38 AM EDT (4/20)
Length of Visible Light 14h 25m
Length of Day
13h 28m
Waxing Gibbous, 71% of the Moon is Illuminated
Apr 20
Waxing Gibbous
Apr 25
Full
May 2
Last Quarter
May 9
New
May 18
First Quarter

Hourly Weather History & Observations

Time (EDT) Temp. Windchill Dew Point Humidity Pressure Visibility Wind Dir Wind Speed Gust Speed Precip Events Conditions
12:56 AM 36.9 °F 25.4 °F 28.0 °F 70% 29.98 in 8.0 mi SW 24.2 mph - N/A   Mostly Cloudy
1:27 AM 37.4 °F 27.2 °F 28.4 °F 70% 29.97 in 8.0 mi WSW 19.6 mph 26.5 mph 0.00 in   Overcast
1:56 AM 32.0 °F 20.1 °F 29.1 °F 89% 30.02 in 1.2 mi West 19.6 mph 27.6 mph 0.00 in Snow Light Snow
2:03 AM 32.0 °F 22.1 °F 28.4 °F 87% 29.98 in 1.8 mi WSW 13.8 mph 27.6 mph 0.00 in Snow Light Snow
2:06 AM 32.0 °F 22.1 °F 30.2 °F 93% 29.98 in 4.0 mi WSW 13.8 mph - 0.00 in Snow Light Snow
2:14 AM 33.8 °F 24.8 °F 28.4 °F 81% 29.99 in 8.0 mi WSW 12.7 mph - 0.01 in   Scattered Clouds
2:56 AM 32.9 °F 23.7 °F 29.1 °F 86% 30.00 in 8.0 mi WSW 12.7 mph - 0.01 in   Clear
3:56 AM 34.0 °F 25.5 °F 30.0 °F 85% 30.02 in 7.0 mi West 11.5 mph - 0.00 in Snow Light Snow
4:56 AM 34.0 °F 23.8 °F 29.1 °F 82% 30.04 in 8.0 mi WSW 16.1 mph 19.6 mph 0.00 in   Scattered Clouds
5:39 AM 33.8 °F 25.3 °F 28.4 °F 81% 30.03 in 8.0 mi West 11.5 mph - N/A   Mostly Cloudy
5:56 AM 34.0 °F 23.0 °F 27.1 °F 76% 30.06 in 8.0 mi West 18.4 mph - N/A   Mostly Cloudy
6:56 AM 32.9 °F 23.2 °F 25.2 °F 73% 30.09 in 7.0 mi West 13.8 mph - N/A   Clear
7:56 AM 32.9 °F 23.7 °F 25.2 °F 73% 30.13 in 7.0 mi West 12.7 mph - N/A   Clear
8:56 AM 34.0 °F 22.7 °F 25.2 °F 70% 30.17 in 6.0 mi WNW 19.6 mph 24.2 mph N/A   Haze
9:22 AM 33.8 °F 24.3 °F 24.8 °F 70% 30.15 in 7.0 mi West 13.8 mph - N/A   Mostly Cloudy
9:34 AM 35.6 °F 25.9 °F 24.8 °F 65% 30.16 in 6.0 mi West 16.1 mph - N/A   Haze
9:41 AM 35.6 °F 25.9 °F 24.8 °F 65% 30.16 in 7.0 mi West 16.1 mph - N/A   Mostly Cloudy
9:48 AM 35.6 °F 25.9 °F 24.8 °F 65% 30.16 in 7.0 mi West 16.1 mph 21.9 mph N/A   Scattered Clouds
9:56 AM 36.0 °F 27.1 °F 26.1 °F 67% 30.19 in 7.0 mi West 13.8 mph - N/A   Scattered Clouds
10:56 AM 36.9 °F 28.2 °F 25.2 °F 63% 30.23 in 7.0 mi WNW 13.8 mph - N/A   Mostly Cloudy
11:56 AM 37.9 °F 29.2 °F 25.2 °F 60% 30.25 in 7.0 mi West 15.0 mph 19.6 mph N/A   Mostly Cloudy
12:56 PM 38.8 °F 30.8 °F 25.2 °F 58% 30.26 in 7.0 mi WNW 13.8 mph 18.4 mph N/A   Mostly Cloudy
1:56 PM 39.9 °F 31.8 °F 25.2 °F 56% 30.27 in 7.0 mi WNW 15.0 mph - N/A   Mostly Cloudy
2:56 PM 43.0 °F 35.7 °F 26.1 °F 51% 30.28 in 7.0 mi West 15.0 mph - N/A   Mostly Cloudy
3:56 PM 41.9 °F 34.3 °F 25.2 °F 52% 30.29 in 7.0 mi West 15.0 mph - N/A   Scattered Clouds
4:56 PM 43.0 °F 35.4 °F 25.2 °F 49% 30.30 in 7.0 mi NW 16.1 mph 20.7 mph N/A   Mostly Cloudy
5:56 PM 43.9 °F 37.5 °F 24.1 °F 46% 30.32 in 7.0 mi WNW 12.7 mph 20.7 mph N/A   Partly Cloudy
6:56 PM 43.9 °F 37.2 °F 24.1 °F 46% 30.33 in 7.0 mi NW 13.8 mph - N/A   Scattered Clouds
7:56 PM 39.9 °F 33.4 °F 23.0 °F 51% 30.35 in 7.0 mi NW 10.4 mph - N/A   Partly Cloudy
8:56 PM 34.9 °F 29.0 °F 23.0 °F 62% 30.38 in 8.0 mi North 6.9 mph - N/A   Clear
9:56 PM 34.9 °F 30.8 °F 25.2 °F 68% 30.41 in 8.0 mi North 4.6 mph - N/A   Clear
10:56 PM 34.9 °F 32.0 °F 24.1 °F 65% 30.43 in 8.0 mi North 3.5 mph - N/A   Clear
11:56 PM 34.0 °F 27.2 °F 23.0 °F 64% 30.44 in 8.0 mi North 8.1 mph - N/A   Clear